Lake Piru Weather Center

Moon Phase Calendar



Lake Piru Water Level
Online Cameras

 


      

Current Conditions in Piru
12/3/2020 3:42:58 PM

65°F
Feels Like 55
Clear
Humidity
10%
Pressure
30.21"
Wind
8 mph (ENE)
Dew Point
10°F
UV Index
0/10 (Low)
Visibility
6 mi

Hourly Forecast

Date & Time Thu, Dec 3
3:00 PM
Thu, Dec 3
4:00 PM
Thu, Dec 3
5:00 PM
Thu, Dec 3
6:00 PM
Thu, Dec 3
7:00 PM
Thu, Dec 3
8:00 PM
Thu, Dec 3
9:00 PM
Thu, Dec 3
10:00 PM
Thu, Dec 3
11:00 PM
Fri, Dec 4
12:00 AM
Fri, Dec 4
1:00 AM
Fri, Dec 4
2:00 AM
Fri, Dec 4
3:00 AM
Fri, Dec 4
4:00 AM
Fri, Dec 4
5:00 AM
Fri, Dec 4
6:00 AM
Fri, Dec 4
7:00 AM
Fri, Dec 4
8:00 AM
Fri, Dec 4
9:00 AM
Fri, Dec 4
10:00 AM
Fri, Dec 4
11:00 AM
Fri, Dec 4
12:00 PM
Fri, Dec 4
1:00 PM
Fri, Dec 4
2:00 PM
Fri, Dec 4
3:00 PM
Fri, Dec 4
4:00 PM
Fri, Dec 4
5:00 PM
Fri, Dec 4
6:00 PM
Fri, Dec 4
7:00 PM
Fri, Dec 4
8:00 PM
Fri, Dec 4
9:00 PM
Fri, Dec 4
10:00 PM
Fri, Dec 4
11:00 PM
Sat, Dec 5
12:00 AM
Sat, Dec 5
1:00 AM
Sat, Dec 5
2:00 AM
Sat, Dec 5
3:00 AM
Sat, Dec 5
4:00 AM
Sat, Dec 5
5:00 AM
Sat, Dec 5
6:00 AM
Sat, Dec 5
7:00 AM
Sat, Dec 5
8:00 AM
Sat, Dec 5
9:00 AM
Sat, Dec 5
10:00 AM
Sat, Dec 5
11:00 AM
Sat, Dec 5
12:00 PM
Sat, Dec 5
1:00 PM
Sat, Dec 5
2:00 PM
Condition
Clear

Clear

Clear

Clear

Clear

Clear

Clear

Clouds

Clouds

Clouds

Clouds

Clouds

Clouds

Clouds

Clouds

Clouds

Clouds

Clouds

Clouds

Clouds

Clouds

Clear

Clear

Clear

Clear

Clear

Clouds

Clouds

Clouds

Clouds

Clouds

Clouds

Clouds

Clouds

Clouds

Clouds

Clouds

Clouds

Clouds

Clear

Clear

Clear

Clear

Clear

Clear

Clear

Clear

Clear
Temperature 65°F64°F56°F53°F51°F50°F50°F49°F49°F48°F49°F48°F48°F48°F48°F48°F48°F55°F63°F69°F72°F74°F74°F74°F72°F66°F54°F54°F54°F55°F54°F53°F54°F55°F54°F53°F52°F52°F51°F50°F50°F57°F65°F69°F72°F73°F73°F73°F
Feels Like 53°F54°F47°F42°F41°F41°F40°F40°F40°F40°F39°F39°F39°F39°F39°F39°F39°F46°F55°F61°F64°F66°F66°F66°F65°F60°F49°F47°F46°F47°F46°F46°F46°F48°F46°F45°F44°F43°F43°F42°F42°F49°F58°F62°F64°F65°F66°F65°F
Cloudiness 0%0%0%0%0%0%2%11%68%37%29%22%19%17%28%22%16%24%34%37%12%6%4%3%3%3%24%61%74%81%84%83%100%100%100%100%100%95%15%8%5%4%4%3%0%0%0%0%
Visibility 6 mi6 mi6 mi6 mi6 mi6 mi6 mi6 mi6 mi6 mi6 mi6 mi6 mi6 mi6 mi6 mi6 mi6 mi6 mi6 mi6 mi6 mi6 mi6 mi6 mi6 mi6 mi6 mi6 mi6 mi6 mi6 mi6 mi6 mi6 mi6 mi6 mi6 mi6 mi6 mi6 mi6 mi6 mi6 mi6 mi6 mi6 mi6 mi
Precipitation 0%0%0%0%0%0%0%0%0%0%0%0%0%0%0%0%0%0%0%0%0%0%0%0%0%0%0%0%0%0%0%0%0%0%0%0%0%0%0%0%0%0%0%0%0%0%0%0%
Humidity 10%17%26%31%33%33%34%35%35%36%35%35%33%33%33%32%33%28%21%17%16%15%15%15%16%22%32%31%33%32%33%34%33%31%31%31%31%31%32%31%31%27%20%17%15%15%15%15%
Dew Point 10°F20°F23°F24°F24°F1°F1°F1°F1°F2°F0°F0°F-3°F-3°F-4°F-4°F-4°F1°F3°F4°F6°F7°F6°F6°F6°F11°F8°F8°F9°F11°F11°F11°F11°F9°F7°F5°F2°F1°F0°F-2°F-2°F4°F4°F3°F2°F2°F2°F3°F
Pressure 30.21"30.21"30.24"30.24"30.27"30.27"30.3"30.3"30.3"30.27"30.27"30.27"30.27"30.24"30.24"30.24"30.24"30.24"30.27"30.24"30.21"30.18"30.15"30.15"30.15"30.15"30.15"30.15"30.15"30.18"30.18"30.21"30.21"30.21"30.18"30.18"30.18"30.18"30.18"30.21"30.21"30.24"30.24"30.24"30.24"30.24"30.21"30.21"
Wind Speed 11.2 mph8 mph7.7 mph9.5 mph9.1 mph8.7 mph8.4 mph8.1 mph7.7 mph7.5 mph7.7 mph7.5 mph7.6 mph7.4 mph7.7 mph8.1 mph8.4 mph7.4 mph7 mph6.2 mph5.8 mph6.1 mph5.7 mph5.1 mph3.6 mph2.5 mph1.8 mph5.5 mph6 mph6 mph6.2 mph6.1 mph5.7 mph5.2 mph5.5 mph5.6 mph5.6 mph6 mph6 mph6.2 mph6.2 mph5.4 mph4.3 mph4.5 mph5.7 mph5.4 mph5.7 mph5.6 mph
Wind
Direction
46°
NE
43°
NE
11°
N

N

N
12°
NNE

N

N
10°
N

N

N

N
13°
NNE
17°
NNE
17°
NNE
13°
NNE
12°
NNE
18°
NNE
41°
NE
57°
ENE
64°
ENE
75°
ENE
81°
E
96°
E
110°
ESE
131°
SE

N

N
359°
N

N

N

N

N
12°
NNE
13°
NNE
12°
NNE

N
12°
NNE
12°
NNE
10°
N
11°
N
16°
NNE
54°
NE
89°
E
101°
E
119°
ESE
141°
SE
146°
SE

Daily Forecast

Date High Low Precip. Humidity
Today
Dec 3

Clear
67 °F
49 °F
0%
21%
Friday
Dec 4

Clouds
74 °F
48 °F
0%
17%
Saturday
Dec 5

Clouds
73 °F
52 °F
0%
18%
Sunday
Dec 6

Clear
73 °F
51 °F
0%
21%
Monday
Dec 7

Clear
66 °F
47 °F
0%
30%
Tuesday
Dec 8

Clouds
76 °F
57 °F
0%
19%
Wednesday
Dec 9

Clear
79 °F
57 °F
0%
15%
Thursday
Dec 10

Clear
76 °F
51 °F
0%
19%
Friday
Dec 11

Clear
62 °F
44 °F
0%
37%
Saturday
Dec 12

Clouds
67 °F
46 °F
0%
21%
Sunday
Dec 13

Clouds
69 °F
51 °F
0%
19%
Monday
Dec 14

Clouds
76 °F
50 °F
0%
23%
Tuesday
Dec 15

Clouds
78 °F
53 °F
0%
19%
Wednesday
Dec 16

Clear
77 °F
51 °F
0%
22%
Thursday
Dec 17

Clear
72 °F
47 °F
0%
23%
Friday
Dec 18

Rain
54 °F
34 °F
35%
65%


Temperature 8-14 Day Outlook



Precipitation 8-14 Day Outlook




Quick Links
Lake Piru News
Lake Piru Photos
Lake Piru Videos




About Us
Contact Us
Site Map
Search Site
Advertise With Us
   
Piru.USLakes.info
THE LAKE PIRU WEBSITE

Copyright 2020, Lakes Online
Privacy    |    Legal